contact:dominique.lefevre@mio.osupytheas.fr, maurice.libes@osupytheas.fr, didier.mallarino@osupytheas.fr
Project:EMSO http://www.emso-fr.org/EMSO-France
Depth: 2436.0 m
Title:EMSO Ligure Ouest : Data MII capteur AQUADOPP
Date,Latitude,Longitude,X_East,Y_North,Z_Up,Amplitude_X,Amplitude_Y,Amplitude_Z,Batterie,SoundSpeed,Heading,Pitch,Roll,Pressure,TIS,Speed,Direction
, degrees North, degrees East, m.s-1, m.s-1,m.s-1, 1, 1, 1, Volt, m.s-1, degree, degree, degree, dbar, degree_C, m.s-1, degree
2021-01-15T00:04:03,42.805,6.029,0.028,-0.047,0.023,108.0,107.0,103.0,13.4,1505.2,327.7,-0.7,1.8,2470.318,13.3,0.054,149.2
2021-01-15T00:07:03,42.805,6.029,0.048,-0.045,-0.009,107.0,108.0,103.0,13.4,1505.3,323.3,-0.7,1.9,2470.372,13.31,0.065,133.1
2021-01-15T00:10:03,42.805,6.029,0.038,-0.046,0.01,107.0,108.0,104.0,13.4,1505.3,324.2,-0.7,1.8,2470.334,13.31,0.059,140.4
2021-01-15T00:13:03,42.805,6.029,0.023,-0.032,0.01,108.0,108.0,103.0,13.4,1505.3,326.7,-0.7,1.8,2470.276,13.31,0.039,144.3
2021-01-15T00:16:03,42.805,6.029,0.05,-0.044,-0.006,107.0,108.0,105.0,13.3,1505.3,326.7,-0.7,1.9,2470.306,13.32,0.066,131.3
2021-01-15T00:19:03,42.805,6.029,0.057,-0.058,-0.009,108.0,107.0,104.0,13.3,1505.3,326.8,-0.7,1.8,2470.3,13.32,0.081,135.5
2021-01-15T00:22:03,42.805,6.029,0.023,-0.043,0.001,107.0,108.0,103.0,13.4,1505.3,322.9,-0.7,1.8,2470.277,13.32,0.048,151.9
2021-01-15T00:25:03,42.805,6.029,0.05,-0.049,0.031,109.0,109.0,103.0,13.4,1505.3,326.4,-0.7,1.8,2470.317,13.32,0.07,134.4
2021-01-15T00:28:03,42.805,6.029,0.058,-0.05,-0.008,107.0,108.0,102.0,13.4,1505.3,325.3,-0.7,1.8,2470.318,13.32,0.076,130.8
2021-01-15T00:34:03,42.805,6.029,0.039,-0.063,-0.027,108.0,107.0,104.0,13.4,1505.2,324.8,-0.7,1.8,2470.311,13.3,0.074,148.2
2021-01-15T00:37:03,42.805,6.029,0.04,-0.064,-0.001,107.0,108.0,104.0,13.3,1505.3,328.1,-0.7,1.8,2470.343,13.31,0.075,148.0
2021-01-15T00:40:03,42.805,6.029,0.035,-0.063,-0.002,109.0,107.0,105.0,13.4,1505.3,324.1,-0.7,1.8,2470.226,13.31,0.072,150.9
2021-01-15T00:43:03,42.805,6.029,0.046,-0.068,-0.013,107.0,108.0,104.0,13.4,1505.3,324.8,-0.7,1.9,2470.303,13.31,0.082,145.9
2021-01-15T00:46:03,42.805,6.029,0.057,-0.075,0.016,107.0,108.0,104.0,13.3,1505.3,327.6,-0.7,1.8,2470.257,13.32,0.094,142.8
2021-01-15T00:49:03,42.805,6.029,0.052,-0.047,0.012,107.0,108.0,103.0,13.4,1505.3,323.2,-0.7,1.8,2470.266,13.32,0.07,132.1
2021-01-15T00:52:03,42.805,6.029,0.038,-0.024,0.012,107.0,107.0,104.0,13.3,1505.3,322.9,-0.7,1.8,2470.241,13.32,0.044,122.3
2021-01-15T00:55:03,42.805,6.029,0.035,-0.057,-0.034,109.0,107.0,104.0,13.4,1505.3,327.0,-0.7,1.8,2470.285,13.32,0.066,148.4
2021-01-15T00:58:03,42.805,6.029,0.05,-0.032,0.003,108.0,107.0,104.0,13.4,1505.3,327.5,-0.7,1.8,2470.262,13.32,0.059,122.6
2021-01-15T01:04:03,42.805,6.029,0.043,-0.043,0.016,109.0,110.0,104.0,13.4,1505.2,323.4,-0.7,1.8,2470.302,13.3,0.06,135.0
2021-01-15T01:07:03,42.805,6.029,0.055,-0.054,0.025,109.0,108.0,103.0,13.4,1505.3,326.1,-0.7,1.8,2470.258,13.31,0.077,134.5
2021-01-15T01:10:03,42.805,6.029,0.028,-0.049,0.009,108.0,107.0,103.0,13.4,1505.3,324.4,-0.7,1.8,2470.278,13.31,0.056,150.3
2021-01-15T01:13:03,42.805,6.029,0.027,-0.038,0.003,107.0,108.0,103.0,13.4,1505.3,327.3,-0.7,1.8,2470.276,13.31,0.046,144.6
2021-01-15T01:16:03,42.805,6.029,0.04,-0.056,0.013,106.0,106.0,105.0,13.3,1505.3,322.9,-0.7,1.8,2470.248,13.32,0.068,144.5
2021-01-15T01:19:03,42.805,6.029,0.06,-0.048,0.004,107.0,108.0,105.0,13.4,1505.3,326.9,-0.7,1.9,2470.269,13.32,0.076,128.7
2021-01-15T01:22:03,42.805,6.029,0.014,-0.051,0.009,108.0,108.0,104.0,13.3,1505.3,325.0,-0.7,1.9,2470.267,13.32,0.052,164.7
2021-01-15T01:25:03,42.805,6.029,0.057,-0.073,0.008,107.0,108.0,104.0,13.3,1505.3,328.2,-0.7,1.8,2470.246,13.32,0.092,142.0
2021-01-15T01:28:03,42.805,6.029,0.036,-0.066,0.0,108.0,108.0,104.0,13.4,1505.3,323.7,-0.7,1.8,2470.256,13.32,0.075,151.4
2021-01-15T01:31:03,42.805,6.029,0.04,-0.048,0.025,109.0,106.0,104.0,13.4,1505.3,322.8,-0.7,1.8,2470.267,13.32,0.062,140.2
2021-01-15T01:34:03,42.805,6.029,0.055,-0.071,0.006,107.0,107.0,104.0,13.4,1505.3,325.9,-0.7,1.8,2470.246,13.32,0.089,142.2
2021-01-15T01:37:03,42.805,6.029,0.047,-0.064,-0.01,108.0,108.0,104.0,13.4,1505.3,325.9,-0.7,1.8,2470.3,13.32,0.079,143.7
2021-01-15T01:40:03,42.805,6.029,0.062,-0.069,-0.001,108.0,108.0,104.0,13.4,1505.3,328.0,-0.7,1.8,2470.263,13.32,0.092,138.1
2021-01-15T01:43:03,42.805,6.029,0.047,-0.048,0.026,107.0,108.0,104.0,13.4,1505.3,324.1,-0.7,1.8,2470.233,13.32,0.067,135.6
2021-01-15T01:46:03,42.805,6.029,0.048,-0.053,-0.02,107.0,107.0,103.0,13.4,1505.3,326.0,-0.7,1.8,2470.249,13.32,0.071,137.8
2021-01-15T01:49:03,42.805,6.029,0.032,-0.045,0.016,108.0,108.0,104.0,13.4,1505.3,325.3,-0.7,1.8,2470.251,13.32,0.055,144.6
2021-01-15T01:52:03,42.805,6.029,0.043,-0.042,-0.013,108.0,108.0,104.0,13.3,1505.3,326.3,-0.7,1.9,2470.245,13.32,0.06,134.3
2021-01-15T01:55:03,42.805,6.029,0.051,-0.061,0.001,108.0,108.0,104.0,13.4,1505.3,324.8,-0.7,1.8,2470.205,13.32,0.079,140.1
2021-01-15T01:58:03,42.805,6.029,0.049,-0.043,0.013,108.0,108.0,104.0,13.4,1505.3,324.9,-0.7,1.8,2470.242,13.32,0.065,131.3
2021-01-15T02:04:03,42.805,6.029,0.03,-0.059,0.011,107.0,107.0,104.0,13.3,1505.2,326.8,-0.7,1.8,2470.23,13.3,0.066,153.0
2021-01-15T02:07:03,42.805,6.029,0.041,-0.07,0.005,108.0,108.0,103.0,13.4,1505.3,326.3,-0.7,1.8,2470.267,13.31,0.081,149.6
2021-01-15T02:10:03,42.805,6.029,0.03,-0.05,0.013,107.0,108.0,104.0,13.3,1505.3,323.5,-0.7,1.8,2470.242,13.31,0.058,149.0
2021-01-15T02:13:03,42.805,6.029,0.041,-0.046,-0.025,108.0,107.0,104.0,13.4,1505.3,322.8,-0.7,1.8,2470.268,13.31,0.061,138.3
2021-01-15T02:16:03,42.805,6.029,0.055,-0.062,0.058,106.0,107.0,105.0,13.3,1505.3,322.7,-0.7,1.9,2470.28,13.32,0.082,138.4
2021-01-15T02:19:03,42.805,6.029,0.051,-0.062,0.019,108.0,107.0,105.0,13.4,1505.3,328.0,-0.7,1.8,2470.198,13.32,0.08,140.6
2021-01-15T02:22:03,42.805,6.029,0.039,-0.053,0.013,108.0,107.0,104.0,13.3,1505.3,327.6,-0.7,1.8,2470.271,13.32,0.065,143.7
2021-01-15T02:25:03,42.805,6.029,0.022,-0.038,-0.004,108.0,107.0,104.0,13.3,1505.3,326.5,-0.7,1.8,2470.253,13.32,0.043,149.9
2021-01-15T02:28:03,42.805,6.029,0.027,-0.061,0.0,109.0,107.0,104.0,13.4,1505.3,324.0,-0.7,1.8,2470.244,13.32,0.066,156.1
2021-01-15T02:31:03,42.805,6.029,0.039,-0.045,0.01,108.0,107.0,104.0,13.4,1505.3,327.7,-0.7,1.8,2470.242,13.32,0.059,139.1
2021-01-15T02:34:03,42.805,6.029,0.048,-0.044,-0.023,108.0,107.0,104.0,13.4,1505.3,324.6,-0.7,1.8,2470.24,13.32,0.065,132.5
2021-01-15T02:37:03,42.805,6.029,0.018,-0.064,-0.006,108.0,107.0,106.0,13.4,1505.3,328.0,-0.7,1.8,2470.236,13.32,0.066,164.3
2021-01-15T02:40:03,42.805,6.029,0.041,-0.054,0.011,108.0,107.0,104.0,13.4,1505.3,324.0,-0.7,1.8,2470.217,13.32,0.067,142.8
2021-01-15T02:43:03,42.805,6.029,0.04,-0.075,-0.006,107.0,108.0,103.0,13.4,1505.3,326.3,-0.7,1.8,2470.23,13.32,0.084,151.9
2021-01-15T02:46:03,42.805,6.029,0.063,-0.048,0.022,109.0,106.0,102.0,13.4,1505.3,323.0,-0.7,1.8,2470.204,13.32,0.079,127.3
2021-01-15T02:49:03,42.805,6.029,0.043,-0.054,0.002,108.0,108.0,104.0,13.3,1505.3,324.7,-0.7,1.8,2470.225,13.32,0.069,141.5
2021-01-15T02:52:03,42.805,6.029,0.029,-0.042,-0.009,109.0,108.0,104.0,13.4,1505.3,327.9,-0.7,1.9,2470.227,13.32,0.051,145.4
2021-01-15T02:55:03,42.805,6.029,0.07,-0.052,-0.012,108.0,107.0,104.0,13.3,1505.3,324.3,-0.7,1.8,2470.245,13.32,0.087,126.6
2021-01-15T02:58:03,42.805,6.029,0.025,-0.065,-0.016,108.0,109.0,103.0,13.4,1505.3,325.1,-0.7,1.8,2470.24,13.32,0.069,159.0
2021-01-15T03:04:03,42.805,6.029,0.034,-0.079,0.004,107.0,107.0,104.0,13.4,1505.2,324.0,-0.7,1.8,2470.278,13.3,0.086,156.7
2021-01-15T03:07:03,42.805,6.029,0.045,-0.04,-0.001,107.0,110.0,103.0,13.4,1505.3,327.0,-0.7,1.8,2470.256,13.31,0.06,131.6
2021-01-15T03:10:03,42.805,6.029,0.049,-0.039,0.011,108.0,108.0,105.0,13.3,1505.3,327.6,-0.7,1.8,2470.251,13.31,0.062,128.5
2021-01-15T03:13:03,42.805,6.029,0.055,-0.059,-0.002,108.0,107.0,104.0,13.3,1505.3,324.6,-0.7,1.8,2470.287,13.31,0.08,137.0
2021-01-15T03:16:03,42.805,6.029,0.039,-0.062,-0.004,107.0,109.0,104.0,13.3,1505.3,325.3,-0.8,1.8,2470.252,13.32,0.073,147.8
2021-01-15T03:19:03,42.805,6.029,0.047,-0.051,0.025,107.0,107.0,105.0,13.4,1505.3,323.5,-0.7,1.8,2470.267,13.32,0.069,137.3
2021-01-15T03:22:03,42.805,6.029,0.044,-0.061,-0.011,107.0,108.0,104.0,13.4,1505.3,327.1,-0.7,1.8,2470.199,13.32,0.075,144.2
2021-01-15T03:25:03,42.805,6.029,0.045,-0.063,0.0,108.0,108.0,104.0,13.4,1505.3,324.7,-0.7,1.8,2470.287,13.32,0.077,144.5
2021-01-15T03:28:03,42.805,6.029,0.037,-0.061,0.011,108.0,109.0,105.0,13.4,1505.3,324.4,-0.7,1.8,2470.23,13.32,0.071,148.8
2021-01-15T03:31:03,42.805,6.029,0.056,-0.053,0.0,108.0,108.0,105.0,13.4,1505.3,324.8,-0.7,1.9,2470.225,13.32,0.077,133.4
2021-01-15T03:34:03,42.805,6.029,0.04,-0.052,0.019,108.0,108.0,104.0,13.4,1505.3,324.3,-0.7,1.8,2470.229,13.32,0.065,142.4
2021-01-15T03:37:03,42.805,6.029,0.022,-0.063,0.0,108.0,107.0,104.0,13.4,1505.3,327.5,-0.7,1.8,2470.276,13.32,0.066,160.8
2021-01-15T03:40:03,42.805,6.029,0.062,-0.06,0.048,108.0,109.0,103.0,13.4,1505.3,323.2,-0.7,1.8,2470.267,13.32,0.086,134.1
2021-01-15T03:43:03,42.805,6.029,0.047,-0.062,-0.039,107.0,108.0,104.0,13.4,1505.3,324.4,-0.7,1.8,2470.218,13.32,0.077,142.8
2021-01-15T03:46:03,42.805,6.029,0.042,-0.035,-0.007,107.0,108.0,104.0,13.3,1505.3,325.8,-0.7,1.8,2470.216,13.32,0.054,129.8
2021-01-15T03:49:03,42.805,6.029,0.042,-0.063,0.003,107.0,109.0,105.0,13.4,1505.3,326.2,-0.7,1.8,2470.258,13.32,0.075,146.3
2021-01-15T03:52:03,42.805,6.029,0.031,-0.066,-0.021,108.0,109.0,104.0,13.3,1505.3,325.5,-0.7,1.8,2470.24,13.32,0.072,154.8
2021-01-15T03:55:03,42.805,6.029,0.03,-0.066,0.006,107.0,107.0,104.0,13.4,1505.3,325.9,-0.7,1.8,2470.237,13.32,0.072,155.6
2021-01-15T03:58:03,42.805,6.029,0.034,-0.062,0.033,109.0,108.0,104.0,13.4,1505.3,325.4,-0.7,1.8,2470.267,13.32,0.07,151.3
2021-01-15T04:04:03,42.805,6.029,0.026,-0.05,0.015,107.0,108.0,105.0,13.4,1505.2,322.9,-0.7,1.8,2470.338,13.3,0.056,152.5
2021-01-15T04:07:03,42.805,6.029,0.049,-0.07,0.024,109.0,107.0,103.0,13.4,1505.3,323.2,-0.7,1.8,2470.282,13.31,0.085,145.0
2021-01-15T04:10:03,42.805,6.029,0.056,-0.04,0.03,107.0,108.0,104.0,13.3,1505.3,328.3,-0.7,1.8,2470.312,13.31,0.068,125.5
2021-01-15T04:13:03,42.805,6.029,0.037,-0.049,-0.022,108.0,107.0,105.0,13.3,1505.3,324.4,-0.7,1.8,2470.293,13.31,0.061,142.9
2021-01-15T04:16:03,42.805,6.029,0.056,-0.063,0.02,108.0,108.0,104.0,13.4,1505.3,326.1,-0.7,1.8,2470.287,13.32,0.084,138.4
2021-01-15T04:19:03,42.805,6.029,0.036,-0.059,0.017,108.0,108.0,103.0,13.3,1505.3,325.0,-0.7,1.8,2470.296,13.32,0.069,148.6
2021-01-15T04:22:03,42.805,6.029,0.024,-0.058,-0.009,109.0,108.0,104.0,13.4,1505.3,325.3,-0.7,1.8,2470.268,13.32,0.062,157.5
2021-01-15T04:25:03,42.805,6.029,0.052,-0.041,-0.001,108.0,108.0,104.0,13.4,1505.3,324.0,-0.7,1.9,2470.316,13.32,0.066,128.3
2021-01-15T04:28:03,42.805,6.029,0.035,-0.052,-0.001,108.0,108.0,105.0,13.4,1505.3,323.5,-0.7,1.9,2470.276,13.32,0.062,146.1
2021-01-15T04:31:03,42.805,6.029,0.05,-0.05,0.006,108.0,108.0,104.0,13.4,1505.3,325.0,-0.7,1.8,2470.304,13.32,0.07,135.0
2021-01-15T04:34:03,42.805,6.029,0.014,-0.034,0.002,107.0,108.0,104.0,13.3,1505.3,327.4,-0.7,1.8,2470.293,13.32,0.036,157.6
2021-01-15T04:37:03,42.805,6.029,0.043,-0.051,-0.008,107.0,108.0,104.0,13.4,1505.3,326.2,-0.7,1.9,2470.271,13.32,0.066,139.9
2021-01-15T04:40:03,42.805,6.029,0.028,-0.055,0.025,108.0,108.0,104.0,13.3,1505.3,327.0,-0.7,1.8,2470.288,13.32,0.061,153.0
2021-01-15T04:43:03,42.805,6.029,0.036,-0.058,-0.002,108.0,107.0,105.0,13.4,1505.3,325.0,-0.7,1.8,2470.279,13.32,0.068,148.2
2021-01-15T04:46:03,42.805,6.029,-0.005,-0.065,-0.005,107.0,109.0,103.0,13.4,1505.3,328.3,-0.7,1.8,2470.281,13.32,0.065,184.4
2021-01-15T04:49:03,42.805,6.029,0.054,-0.054,-0.022,108.0,108.0,105.0,13.4,1505.3,326.3,-0.7,1.8,2470.31,13.32,0.076,135.0
2021-01-15T04:52:03,42.805,6.029,0.032,-0.041,0.019,108.0,108.0,104.0,13.4,1505.3,327.9,-0.7,1.9,2470.327,13.32,0.052,142.0
2021-01-15T04:55:03,42.805,6.029,0.048,-0.042,0.016,108.0,108.0,105.0,13.3,1505.3,322.4,-0.7,1.8,2470.287,13.32,0.063,131.2
2021-01-15T04:58:03,42.805,6.029,0.057,-0.05,0.021,107.0,108.0,104.0,13.4,1505.3,325.2,-0.7,1.9,2470.315,13.32,0.075,131.3
2021-01-15T05:04:03,42.805,6.029,0.029,-0.04,0.015,108.0,107.0,104.0,13.4,1505.2,324.4,-0.7,1.8,2470.367,13.3,0.049,144.1
2021-01-15T05:07:03,42.805,6.029,0.038,-0.056,-0.025,108.0,107.0,104.0,13.4,1505.3,326.7,-0.7,1.8,2470.358,13.31,0.067,145.8
2021-01-15T05:10:03,42.805,6.029,0.035,-0.058,0.012,108.0,108.0,104.0,13.4,1505.3,327.7,-0.7,1.8,2470.328,13.31,0.067,148.9
2021-01-15T05:13:03,42.805,6.029,0.029,-0.049,0.033,109.0,108.0,103.0,13.4,1505.3,327.4,-0.7,1.8,2470.347,13.31,0.056,149.4
2021-01-15T05:16:03,42.805,6.029,0.043,-0.057,0.006,107.0,108.0,104.0,13.3,1505.3,327.2,-0.7,1.8,2470.374,13.32,0.071,143.0
2021-01-15T05:19:03,42.805,6.029,0.041,-0.037,0.004,108.0,107.0,104.0,13.4,1505.3,324.9,-0.7,1.8,2470.35,13.32,0.055,132.1
2021-01-15T05:22:03,42.805,6.029,0.025,-0.064,0.019,108.0,106.0,104.0,13.4,1505.3,326.9,-0.7,1.8,2470.37,13.32,0.068,158.7
2021-01-15T05:25:03,42.805,6.029,0.042,-0.05,0.01,109.0,107.0,104.0,13.4,1505.3,327.1,-0.7,1.8,2470.355,13.32,0.065,140.0
2021-01-15T05:28:03,42.805,6.029,0.041,-0.045,0.009,107.0,107.0,103.0,13.3,1505.3,325.3,-0.7,1.8,2470.344,13.32,0.06,137.7
2021-01-15T05:31:03,42.805,6.029,0.045,-0.043,0.005,108.0,108.0,103.0,13.4,1505.3,327.1,-0.7,1.8,2470.377,13.32,0.062,133.7
2021-01-15T05:34:03,42.805,6.029,0.042,-0.067,-0.003,106.0,107.0,104.0,13.3,1505.3,324.1,-0.7,1.8,2470.315,13.32,0.079,147.9
2021-01-15T05:37:03,42.805,6.029,0.028,-0.068,-0.005,107.0,107.0,103.0,13.4,1505.3,326.5,-0.7,1.8,2470.36,13.32,0.073,157.6
2021-01-15T05:40:03,42.805,6.029,0.049,-0.058,-0.006,106.0,107.0,103.0,13.4,1505.3,328.2,-0.7,1.8,2470.347,13.32,0.075,139.8
2021-01-15T05:43:03,42.805,6.029,0.035,-0.058,-0.005,107.0,106.0,104.0,13.3,1505.3,322.9,-0.7,1.8,2470.383,13.32,0.067,148.9
2021-01-15T05:46:03,42.805,6.029,0.015,-0.06,-0.033,107.0,108.0,104.0,13.4,1505.3,327.3,-0.7,1.8,2470.403,13.32,0.061,166.0
2021-01-15T05:49:03,42.805,6.029,0.042,-0.034,0.039,107.0,107.0,103.0,13.4,1505.3,323.9,-0.7,1.8,2470.359,13.32,0.054,129.0
2021-01-15T05:52:03,42.805,6.029,0.029,-0.041,0.019,107.0,107.0,103.0,13.3,1505.3,327.9,-0.7,1.8,2470.385,13.32,0.05,144.7
2021-01-15T05:55:03,42.805,6.029,0.042,-0.064,0.0,108.0,107.0,104.0,13.4,1505.3,325.9,-0.7,1.8,2470.367,13.32,0.076,146.7
2021-01-15T05:58:03,42.805,6.029,0.035,-0.057,-0.005,107.0,107.0,104.0,13.4,1505.3,327.7,-0.7,1.9,2470.411,13.32,0.066,148.4
2021-01-15T06:04:03,42.805,6.029,0.025,-0.044,0.033,107.0,107.0,104.0,13.3,1505.2,326.9,-0.7,1.9,2470.455,13.3,0.05,150.4
2021-01-15T06:07:03,42.805,6.029,0.039,-0.056,-0.023,108.0,108.0,104.0,13.4,1505.3,324.4,-0.7,1.8,2470.421,13.31,0.068,145.1
2021-01-15T06:10:03,42.805,6.029,0.02,-0.053,0.011,108.0,107.0,104.0,13.4,1505.3,323.5,-0.7,1.8,2470.43,13.31,0.056,159.3
2021-01-15T06:13:03,42.805,6.029,0.002,-0.059,0.007,108.0,108.0,104.0,13.4,1505.3,324.7,-0.7,1.8,2470.468,13.31,0.059,178.1
2021-01-15T06:16:03,42.805,6.029,0.017,-0.044,0.024,108.0,108.0,103.0,13.4,1505.3,327.8,-0.7,1.8,2470.44,13.32,0.047,158.9
2021-01-15T06:19:03,42.805,6.029,0.046,-0.055,0.01,108.0,108.0,103.0,13.4,1505.3,324.6,-0.7,1.8,2470.434,13.32,0.071,140.1
2021-01-15T06:22:03,42.805,6.029,0.036,-0.048,0.014,107.0,107.0,104.0,13.4,1505.3,327.0,-0.7,1.8,2470.441,13.32,0.06,143.1
2021-01-15T06:25:03,42.805,6.029,0.04,-0.041,-0.024,108.0,107.0,104.0,13.4,1505.3,324.8,-0.7,1.8,2470.441,13.32,0.057,135.7
2021-01-15T06:28:03,42.805,6.029,0.031,-0.032,-0.026,108.0,107.0,104.0,13.4,1505.3,327.6,-0.7,1.8,2470.467,13.32,0.044,135.9
2021-01-15T06:31:03,42.805,6.029,0.038,-0.058,0.002,108.0,107.0,104.0,13.3,1505.3,323.8,-0.7,1.8,2470.457,13.32,0.069,146.8
2021-01-15T06:34:03,42.805,6.029,0.033,-0.042,0.005,107.0,107.0,104.0,13.4,1505.3,324.2,-0.7,1.8,2470.435,13.32,0.053,141.8
2021-01-15T06:37:03,42.805,6.029,0.043,-0.044,0.018,107.0,108.0,103.0,13.4,1505.3,327.7,-0.7,1.8,2470.464,13.32,0.061,135.7
2021-01-15T06:40:03,42.805,6.029,0.057,-0.041,0.017,107.0,107.0,104.0,13.4,1505.3,324.1,-0.7,1.8,2470.452,13.32,0.07,125.7
2021-01-15T06:43:03,42.805,6.029,0.051,-0.043,0.031,108.0,108.0,104.0,13.4,1505.3,326.7,-0.7,1.8,2470.443,13.32,0.066,130.1
2021-01-15T06:46:03,42.805,6.029,0.024,-0.061,0.01,108.0,108.0,104.0,13.3,1505.3,324.3,-0.7,1.8,2470.466,13.32,0.065,158.5
2021-01-15T06:49:03,42.805,6.029,0.023,-0.041,-0.001,107.0,107.0,105.0,13.4,1505.3,327.9,-0.7,1.8,2470.478,13.32,0.047,150.7
2021-01-15T06:52:03,42.805,6.029,0.062,-0.049,0.013,107.0,107.0,103.0,13.4,1505.3,325.7,-0.7,1.8,2470.429,13.32,0.079,128.3
2021-01-15T06:55:03,42.805,6.029,0.043,-0.039,0.032,107.0,107.0,105.0,13.4,1505.3,324.0,-0.7,1.8,2470.499,13.32,0.058,132.2
2021-01-15T06:58:03,42.805,6.029,0.036,-0.049,0.031,108.0,109.0,104.0,13.4,1505.3,328.1,-0.7,1.8,2470.47,13.32,0.06,143.7
2021-01-15T07:04:03,42.805,6.029,0.058,-0.054,0.019,107.0,107.0,104.0,13.4,1505.2,327.3,-0.7,1.8,2470.505,13.3,0.079,133.0
2021-01-15T07:07:03,42.805,6.029,0.046,-0.044,0.005,108.0,107.0,104.0,13.3,1505.3,324.6,-0.7,1.8,2470.475,13.31,0.063,133.7
2021-01-15T07:10:03,42.805,6.029,0.051,-0.067,0.02,107.0,107.0,105.0,13.3,1505.3,325.5,-0.7,1.8,2470.513,13.31,0.084,142.7
2021-01-15T07:13:03,42.805,6.029,0.057,-0.059,0.029,108.0,108.0,102.0,13.3,1505.3,323.5,-0.7,1.8,2470.5,13.31,0.082,136.0
2021-01-15T07:16:03,42.805,6.029,0.027,-0.049,-0.01,108.0,108.0,104.0,13.3,1505.3,323.9,-0.7,1.8,2470.511,13.32,0.055,151.1
2021-01-15T07:19:03,42.805,6.029,0.033,-0.052,0.023,107.0,107.0,104.0,13.3,1505.3,324.4,-0.7,1.8,2470.498,13.32,0.061,147.6
2021-01-15T07:22:03,42.805,6.029,0.048,-0.048,0.009,108.0,109.0,104.0,13.4,1505.3,326.3,-0.7,1.8,2470.471,13.32,0.067,135.0
2021-01-15T07:25:03,42.805,6.029,0.036,-0.056,-0.001,108.0,107.0,104.0,13.4,1505.3,324.8,-0.7,1.8,2470.511,13.32,0.066,147.3
2021-01-15T07:28:03,42.805,6.029,0.034,-0.078,-0.017,108.0,108.0,104.0,13.4,1505.3,326.0,-0.7,1.8,2470.545,13.32,0.085,156.5
2021-01-15T07:31:03,42.805,6.029,0.02,-0.032,-0.001,108.0,107.0,104.0,13.4,1505.3,324.1,-0.7,1.8,2470.498,13.32,0.037,148.0
2021-01-15T07:34:03,42.805,6.029,0.052,-0.067,-0.016,107.0,107.0,104.0,13.3,1505.3,325.3,-0.7,1.8,2470.512,13.32,0.084,142.2
2021-01-15T07:37:03,42.805,6.029,0.058,-0.046,0.055,108.0,107.0,104.0,13.3,1505.3,326.5,-0.6,1.8,2470.507,13.32,0.074,128.4
2021-01-15T07:40:03,42.805,6.029,0.045,-0.045,0.006,107.0,108.0,104.0,13.4,1505.3,324.9,-0.7,1.9,2470.487,13.32,0.063,135.0
2021-01-15T07:43:03,42.805,6.029,0.036,-0.063,-0.002,108.0,108.0,105.0,13.4,1505.3,328.0,-0.7,1.9,2470.526,13.32,0.072,150.3
2021-01-15T07:46:03,42.805,6.029,0.024,-0.063,0.0,107.0,108.0,105.0,13.4,1505.3,328.2,-0.6,1.8,2470.505,13.32,0.067,159.1
2021-01-15T07:49:03,42.805,6.029,0.04,-0.05,0.0,108.0,108.0,104.0,13.3,1505.3,324.7,-0.7,1.8,2470.528,13.32,0.064,141.3
2021-01-15T07:52:03,42.805,6.029,0.02,-0.068,0.001,108.0,108.0,104.0,13.3,1505.3,324.5,-0.7,1.8,2470.538,13.32,0.07,163.6
2021-01-15T07:55:03,42.805,6.029,0.042,-0.064,-0.013,108.0,107.0,104.0,13.3,1505.3,325.4,-0.7,1.8,2470.524,13.32,0.076,146.7
2021-01-15T07:58:03,42.805,6.029,0.059,-0.036,-0.005,107.0,108.0,103.0,13.3,1505.3,323.5,-0.7,1.8,2470.515,13.32,0.069,121.4
2021-01-15T08:04:03,42.805,6.029,0.023,-0.038,0.0,109.0,107.0,105.0,13.4,1505.2,327.9,-0.8,1.8,2470.607,13.3,0.044,148.8
2021-01-15T08:07:03,42.805,6.029,0.068,-0.035,-0.001,108.0,108.0,104.0,13.4,1505.3,324.2,-0.7,1.8,2470.534,13.31,0.076,117.2
2021-01-15T08:10:03,42.805,6.029,0.038,-0.03,-0.009,109.0,107.0,104.0,13.3,1505.3,327.4,-0.7,1.8,2470.553,13.31,0.048,128.3
2021-01-15T08:13:03,42.805,6.029,0.038,-0.052,-0.001,109.0,109.0,103.0,13.4,1505.3,327.0,-0.7,1.8,2470.538,13.31,0.064,143.8
2021-01-15T08:16:03,42.805,6.029,0.025,-0.065,-0.029,107.0,108.0,104.0,13.4,1505.3,325.1,-0.7,1.9,2470.597,13.32,0.069,159.0
2021-01-15T08:19:03,42.805,6.029,0.033,-0.044,0.002,109.0,107.0,104.0,13.4,1505.3,322.7,-0.7,1.8,2470.558,13.32,0.055,143.1
2021-01-15T08:22:03,42.805,6.029,0.073,-0.038,0.013,108.0,107.0,104.0,13.3,1505.3,324.5,-0.7,1.9,2470.592,13.32,0.082,117.5
2021-01-15T08:25:03,42.805,6.029,0.055,-0.038,-0.008,108.0,108.0,104.0,13.4,1505.3,323.7,-0.7,1.8,2470.582,13.32,0.066,124.6
2021-01-15T08:28:03,42.805,6.029,0.039,-0.05,-0.004,107.0,106.0,104.0,13.4,1505.3,326.5,-0.7,1.8,2470.567,13.32,0.063,142.0
2021-01-15T08:31:03,42.805,6.029,0.039,-0.052,-0.007,108.0,106.0,104.0,13.4,1505.3,325.2,-0.7,1.8,2470.561,13.32,0.064,143.1
2021-01-15T08:34:03,42.805,6.029,0.03,-0.042,0.023,109.0,107.0,104.0,13.4,1505.3,324.1,-0.7,1.8,2470.54,13.32,0.051,144.5
2021-01-15T08:37:03,42.805,6.029,0.034,-0.053,-0.006,108.0,108.0,103.0,13.4,1505.3,327.9,-0.7,1.8,2470.559,13.32,0.062,147.3
2021-01-15T08:40:03,42.805,6.029,0.035,-0.065,0.003,107.0,106.0,103.0,13.4,1505.3,324.1,-0.7,1.8,2470.551,13.32,0.073,151.7
2021-01-15T08:43:03,42.805,6.029,0.041,-0.062,0.01,106.0,108.0,103.0,13.4,1505.3,325.7,-0.7,1.9,2470.566,13.32,0.074,146.5
2021-01-15T08:46:03,42.805,6.029,0.05,-0.063,-0.017,107.0,107.0,104.0,13.3,1505.3,324.9,-0.7,1.8,2470.568,13.32,0.08,141.6
2021-01-15T08:49:03,42.805,6.029,0.041,-0.037,-0.012,107.0,108.0,103.0,13.4,1505.3,324.1,-0.7,1.9,2470.576,13.32,0.055,132.1
2021-01-15T08:52:03,42.805,6.029,0.05,-0.055,0.008,106.0,108.0,104.0,13.3,1505.3,323.2,-0.7,1.9,2470.56,13.32,0.074,137.7
2021-01-15T08:55:03,42.805,6.029,0.028,-0.064,0.002,107.0,107.0,104.0,13.3,1505.3,322.6,-0.7,1.8,2470.593,13.32,0.069,156.4
2021-01-15T08:58:03,42.805,6.029,0.065,-0.057,-0.005,108.0,107.0,103.0,13.4,1505.3,324.6,-0.7,1.8,2470.545,13.32,0.086,131.2
2021-01-15T09:04:03,42.805,6.029,0.048,-0.035,0.013,108.0,107.0,104.0,13.4,1505.2,324.0,-0.8,1.9,2470.546,13.3,0.059,126.1
2021-01-15T09:07:03,42.805,6.029,0.034,-0.069,-0.006,107.0,107.0,104.0,13.3,1505.3,328.0,-0.7,1.8,2470.577,13.31,0.076,153.8
2021-01-15T09:10:03,42.805,6.029,0.042,-0.076,0.028,107.0,107.0,104.0,13.4,1505.3,325.4,-0.7,1.8,2470.564,13.31,0.086,151.1
2021-01-15T09:13:03,42.805,6.029,0.034,-0.052,0.031,107.0,107.0,104.0,13.4,1505.3,322.9,-0.7,1.8,2470.608,13.31,0.062,146.8
2021-01-15T09:16:03,42.805,6.029,0.048,-0.053,0.012,107.0,108.0,104.0,13.3,1505.3,325.8,-0.7,1.8,2470.585,13.32,0.071,137.8
2021-01-15T09:19:03,42.805,6.029,0.018,-0.068,-0.021,107.0,107.0,104.0,13.3,1505.3,327.9,-0.7,1.8,2470.564,13.32,0.07,165.2
2021-01-15T09:22:03,42.805,6.029,0.034,-0.064,0.002,107.0,108.0,104.0,13.4,1505.3,326.1,-0.7,1.8,2470.548,13.32,0.072,152.0
2021-01-15T09:25:03,42.805,6.029,0.011,-0.055,-0.023,108.0,108.0,103.0,13.4,1505.3,326.6,-0.7,1.9,2470.565,13.32,0.056,168.7
2021-01-15T09:28:03,42.805,6.029,0.045,-0.053,0.011,108.0,107.0,104.0,13.3,1505.3,324.1,-0.7,1.8,2470.582,13.32,0.069,139.7
2021-01-15T09:31:03,42.805,6.029,0.035,-0.05,0.008,107.0,108.0,103.0,13.4,1505.3,326.2,-0.7,1.8,2470.551,13.32,0.061,145.0
2021-01-15T09:34:03,42.805,6.029,0.03,-0.064,-0.014,108.0,107.0,104.0,13.4,1505.3,324.4,-0.7,1.9,2470.614,13.32,0.07,154.9
2021-01-15T09:37:03,42.805,6.029,0.051,-0.045,-0.01,106.0,107.0,104.0,13.4,1505.3,324.7,-0.7,1.8,2470.534,13.32,0.068,131.4
2021-01-15T09:40:03,42.805,6.029,0.007,-0.042,0.0,106.0,108.0,104.0,13.3,1505.3,325.7,-0.7,1.8,2470.557,13.32,0.042,170.5
2021-01-15T09:43:03,42.805,6.029,0.039,-0.063,0.003,108.0,109.0,102.0,13.4,1505.3,323.6,-0.7,1.8,2470.613,13.32,0.074,148.2
2021-01-15T09:46:03,42.805,6.029,0.011,-0.051,-0.016,107.0,107.0,104.0,13.4,1505.3,326.8,-0.7,1.8,2470.558,13.32,0.052,167.8
2021-01-15T09:49:03,42.805,6.029,0.033,-0.062,0.008,108.0,108.0,102.0,13.4,1505.3,324.8,-0.7,1.8,2470.593,13.32,0.07,152.0
2021-01-15T09:52:03,42.805,6.029,0.026,-0.051,0.021,107.0,107.0,104.0,13.4,1505.3,327.9,-0.7,1.8,2470.558,13.32,0.057,153.0
2021-01-15T09:55:03,42.805,6.029,0.048,-0.056,0.009,106.0,107.0,104.0,13.3,1505.3,323.1,-0.7,1.8,2470.562,13.32,0.073,139.4
2021-01-15T09:58:03,42.805,6.029,0.059,-0.064,0.039,108.0,107.0,104.0,13.4,1505.3,322.8,-0.7,1.8,2470.546,13.32,0.087,137.3
2021-01-15T10:04:03,42.805,6.029,0.052,-0.047,0.007,107.0,107.0,104.0,13.4,1505.2,324.2,-0.7,1.8,2470.605,13.3,0.07,132.1